Theta_e
347 348 349 355 354 356 357 360 365 366 368 357 358 358 351 357 359 360 361 358 358 355 354 353 354 355 357 359 361 360 359 362 364 360 357 358 352 351 354 351 350 348 348 350 351 351 348 350 351 349 349 351 352 352 352 348 345 344 344 344 345 347 350 348 345 344 345 346 347 349 349 350 349 348 348 348 349 348 348 346 347 347 347 349 349 349 349 349 348 347 346 345 345 346 347 348 348
346 348 351 357 355 360 363 365 366 360 363 352 350 355 351 358 363 363 358 354 355 351 353 355 355 355 355 356 356 358 359 356 357 358 356 354 352 353 353 349 349 347 348 350 351 349 348 348 348 349 350 352 353 352 352 350 346 343 342 342 344 346 348 348 345 344 345 347 347 349 349 349 349 348 348 349 349 348 347 346 346 346 347 349 349 349 350 350 349 349 347 346 345 346 346 347 347
347 351 353 358 358 360 365 367 363 355 357 348 344 355 357 363 366 362 352 352 352 349 354 355 355 355 355 358 357 360 360 355 353 353 353 354 353 354 352 349 349 348 349 351 351 349 348 348 347 347 349 351 353 353 352 351 349 347 345 344 345 346 347 346 344 344 345 347 347 348 348 349 348 348 348 348 348 348 347 347 346 345 343 344 346 348 349 350 350 350 349 348 346 346 346 346 347
351 353 354 359 361 363 369 371 368 358 352 348 347 353 357 361 358 355 351 352 351 350 353 353 355 353 356 360 358 359 359 356 354 353 353 353 354 355 352 350 349 349 350 351 351 349 348 348 348 348 349 349 351 353 352 352 352 351 349 348 348 348 347 344 344 345 347 348 348 347 347 347 347 348 348 348 348 348 348 347 346 344 341 342 347 349 349 350 350 351 351 350 348 347 347 346 345
354 355 356 357 366 371 374 372 370 357 350 354 355 356 353 353 351 352 351 352 351 352 352 353 356 352 354 356 355 359 359 355 355 354 354 354 355 354 352 351 348 349 352 351 350 350 350 350 349 350 351 349 350 351 352 352 352 352 351 350 350 348 346 345 345 347 348 348 348 348 346 345 345 347 350 350 348 348 348 348 347 345 345 345 348 350 349 349 350 351 351 351 349 348 347 347 346
355 355 356 357 364 367 366 364 363 355 351 358 359 358 353 348 350 351 349 352 352 352 352 354 355 355 356 353 353 356 357 356 355 355 355 355 355 354 353 351 349 351 353 350 350 350 350 352 351 351 350 349 350 352 352 351 352 352 351 351 349 346 346 346 346 348 350 349 349 347 343 340 340 345 350 350 348 348 348 349 348 346 344 344 346 348 348 348 349 350 350 350 349 349 348 348 348
355 354 359 363 363 361 364 359 358 355 351 357 356 353 350 348 350 350 350 352 353 353 352 355 353 357 358 355 355 355 355 356 355 355 356 356 354 354 353 351 351 352 352 349 349 349 350 351 351 350 350 351 352 353 353 352 352 352 351 349 347 346 346 346 346 348 351 351 349 345 340 338 339 344 349 350 348 348 349 349 345 341 340 341 344 346 347 346 347 348 348 348 349 349 348 349 350
352 355 361 368 367 365 364 357 357 357 348 353 356 350 348 348 347 349 351 350 354 354 353 355 353 359 358 354 357 356 355 356 355 355 355 355 354 354 352 352 352 352 353 350 348 349 350 350 352 352 352 353 354 353 353 353 353 352 350 349 347 347 347 347 347 348 351 350 348 343 339 339 340 343 347 348 346 347 349 346 340 338 340 341 343 344 344 344 345 346 347 348 350 349 348 349 349
349 356 361 365 367 361 356 353 355 356 350 351 352 349 348 347 346 348 350 351 353 353 354 355 355 361 359 357 358 355 356 356 355 355 355 355 355 354 353 352 352 353 354 351 349 350 351 351 352 353 353 353 353 352 352 353 352 351 350 348 347 346 346 347 347 349 350 349 346 342 340 340 340 342 344 344 345 348 346 341 338 339 340 341 342 343 343 343 345 347 349 350 350 348 346 346 345
353 359 363 364 364 353 346 348 348 350 349 346 346 346 347 347 346 346 348 352 353 354 355 354 356 359 358 359 359 356 356 356 355 356 356 356 355 354 353 353 353 355 354 351 351 352 352 352 353 353 352 352 352 351 352 352 351 351 350 348 347 346 345 346 348 349 348 346 345 342 341 340 340 341 343 344 347 349 343 338 338 338 339 340 341 343 344 344 344 348 351 350 347 345 342 342 343
361 361 360 363 358 347 343 344 341 342 346 343 346 345 346 346 346 347 350 353 355 355 354 355 358 358 358 359 358 356 356 356 356 355 355 355 354 354 354 354 354 355 354 351 352 353 353 353 352 352 352 352 352 352 351 351 351 351 349 347 347 347 346 347 348 349 347 345 344 343 341 340 342 342 344 345 347 346 339 337 337 337 339 341 342 343 344 345 344 346 348 346 342 341 341 341 342
366 365 361 359 352 347 346 342 337 340 346 344 346 345 346 346 346 349 351 354 355 355 354 356 357 356 358 359 357 356 355 355 355 355 355 354 354 354 355 355 355 356 353 350 351 352 352 352 351 352 352 352 352 352 352 351 351 350 348 347 347 348 348 348 349 350 347 345 343 343 342 342 343 342 345 346 345 344 339 336 336 339 341 342 343 343 343 344 343 345 344 342 340 340 342 343 342
364 366 359 355 351 350 348 341 339 341 342 342 344 343 346 345 346 347 349 353 353 356 356 354 353 354 358 358 356 354 354 355 354 355 355 354 355 355 355 355 356 356 353 350 352 352 351 352 352 351 352 352 351 352 352 352 351 350 349 347 347 348 349 349 350 349 348 346 343 343 343 343 343 342 344 345 345 344 339 336 338 341 343 343 343 342 343 344 344 344 342 340 340 342 344 344 343
360 358 355 356 354 352 348 340 336 333 333 338 340 341 346 346 346 344 347 352 352 356 355 352 351 355 357 357 356 354 354 354 354 355 355 355 355 355 355 356 356 356 353 350 351 352 352 351 352 352 352 352 352 352 351 352 351 350 349 347 348 348 348 349 349 349 347 346 343 343 344 342 343 343 343 342 343 340 336 337 339 343 344 344 343 342 343 343 343 342 342 341 342 345 346 346 345
353 353 355 358 352 346 344 340 334 329 331 339 339 341 346 345 345 344 349 352 352 352 352 352 351 356 357 357 359 355 354 355 354 355 354 355 355 355 356 356 355 356 354 352 351 351 352 351 351 351 352 352 352 352 351 351 350 349 348 347 348 348 348 348 349 348 347 345 344 344 343 343 343 344 342 339 339 336 336 338 338 344 346 344 342 342 343 343 343 342 343 343 343 347 350 349 348
348 350 355 357 348 339 341 343 337 330 334 339 338 341 345 344 345 345 348 350 351 350 352 353 351 355 355 356 357 353 354 355 354 355 355 356 355 355 354 355 355 356 355 354 352 352 353 350 350 350 351 352 351 350 349 349 348 346 346 346 347 347 347 347 347 347 346 345 344 344 343 344 344 343 340 337 340 338 338 340 339 344 346 343 343 343 344 344 344 345 346 347 347 349 351 351 351
347 350 357 353 344 339 342 345 337 332 335 338 338 340 343 345 344 346 347 347 351 352 352 352 350 352 353 354 354 353 354 354 354 355 355 355 355 355 354 355 355 355 356 355 353 354 355 352 350 349 350 351 350 349 347 347 346 345 344 345 346 347 347 347 347 346 346 345 344 344 344 344 343 342 339 340 347 346 343 342 341 345 346 343 344 345 347 348 348 348 349 350 350 351 352 351 351
348 356 358 348 346 346 347 345 340 335 335 336 337 340 343 346 345 345 346 346 350 351 350 350 351 352 352 354 353 352 353 353 354 355 355 355 355 356 355 355 355 355 356 355 354 355 356 354 350 348 349 350 349 348 347 345 344 344 344 346 348 347 347 347 347 346 345 344 343 343 343 345 346 346 347 348 352 352 347 343 344 346 345 344 345 348 349 350 351 350 351 351 351 350 350 349 349
349 356 355 347 348 350 347 344 342 338 337 336 338 340 342 345 344 343 344 346 347 348 350 351 353 354 353 353 353 353 354 353 354 355 355 355 355 356 356 357 356 356 356 355 356 356 357 354 349 348 348 349 349 348 347 346 344 345 346 347 348 347 347 347 346 345 345 343 343 342 343 348 352 353 353 354 354 354 349 345 348 348 346 345 346 351 352 351 350 351 352 351 351 350 349 350 349
347 352 354 351 346 346 345 343 342 341 339 337 338 338 339 340 339 340 342 345 346 347 351 354 356 356 353 353 353 353 353 353 354 355 355 354 355 356 356 357 356 357 356 356 356 356 358 354 350 349 349 352 353 350 348 348 347 347 348 348 348 347 346 346 345 345 345 344 344 341 344 353 355 354 353 354 355 352 348 349 352 351 351 351 350 353 353 351 349 350 352 351 350 350 350 350 350
346 348 352 350 345 345 345 343 342 342 341 339 339 337 337 337 337 339 340 344 345 347 352 354 355 355 354 352 353 353 354 354 354 355 355 355 355 356 356 357 357 357 357 357 357 357 358 356 354 352 352 356 356 353 351 349 348 348 349 348 348 347 346 345 345 345 346 347 346 342 346 354 354 354 353 353 354 348 346 352 354 353 353 353 353 354 353 351 350 350 352 351 351 350 350 351 350
344 346 347 344 343 344 345 344 342 342 342 342 341 338 337 335 335 337 340 343 344 347 351 352 352 352 353 352 352 353 354 355 355 355 356 355 355 356 357 357 357 357 358 358 358 358 358 357 357 355 353 356 357 355 354 351 349 349 349 348 347 347 346 345 344 346 347 350 351 348 351 355 354 354 352 352 353 347 346 352 354 354 355 353 353 353 353 352 351 350 351 351 351 350 350 351 350
342 344 345 343 342 342 342 341 340 342 343 343 342 340 338 335 333 336 339 340 341 347 351 351 350 351 351 353 352 353 354 355 356 356 356 356 355 356 357 357 358 358 358 358 358 359 358 358 358 356 354 356 358 356 356 354 348 350 351 349 349 347 346 345 344 347 349 353 353 352 354 355 354 354 353 352 352 349 349 353 354 354 354 352 351 352 351 351 351 350 350 350 349 350 350 351 350
341 341 343 343 341 342 341 341 341 341 342 343 342 342 340 337 335 337 338 339 345 349 350 350 350 350 351 352 352 352 354 354 355 356 356 356 355 356 357 357 358 358 359 358 358 359 358 358 357 355 354 355 358 357 358 356 349 354 356 353 354 351 350 348 347 350 352 353 352 351 355 354 354 353 352 352 351 351 351 352 352 352 351 351 351 351 350 350 351 349 349 349 349 349 349 350 348
339 339 340 341 342 343 342 341 341 340 341 343 343 344 342 339 338 339 340 343 349 351 350 349 349 350 352 351 352 353 354 354 355 355 354 355 355 355 356 357 357 357 359 358 358 358 358 358 357 353 353 354 357 357 358 357 352 356 358 356 357 354 354 353 351 354 355 354 353 351 354 354 353 352 351 352 352 352 352 351 352 351 351 350 350 350 349 349 350 349 349 349 348 348 349 349 344
336 337 338 339 341 342 342 343 341 340 340 342 344 344 343 340 339 338 341 345 349 350 350 349 350 350 351 351 351 354 355 354 353 353 353 353 354 355 355 355 356 357 358 359 358 358 358 358 357 355 354 354 356 357 357 358 355 356 358 356 357 355 355 355 354 355 355 355 355 353 354 355 354 352 352 352 352 353 352 352 351 351 351 350 350 350 349 348 349 349 349 349 348 347 349 347 341
334 335 337 337 339 340 342 342 341 340 339 342 343 342 341 340 341 340 342 346 348 350 352 351 352 352 351 351 351 354 353 352 351 351 351 352 353 353 354 354 354 355 357 358 358 357 357 357 358 358 357 355 356 357 356 356 356 355 356 355 355 355 354 354 354 354 354 355 355 354 355 354 355 354 352 352 353 353 353 353 351 351 351 350 350 351 350 349 349 349 348 349 348 348 347 344 340
335 335 335 334 336 338 341 341 341 339 339 341 342 342 341 340 342 341 342 346 348 350 352 351 352 352 352 351 352 354 353 351 350 350 350 351 352 352 353 354 354 354 356 357 357 357 357 357 358 359 359 357 356 356 356 355 355 355 354 354 355 354 354 354 355 354 353 354 355 355 355 353 353 355 354 353 354 355 354 353 351 350 351 351 352 351 351 350 350 350 349 348 348 347 345 343 342
334 334 333 332 332 335 339 340 340 340 340 341 341 340 340 343 341 339 340 345 347 349 350 350 350 351 351 351 353 354 352 350 349 349 350 350 351 352 352 353 353 353 355 356 357 356 356 357 357 357 358 358 356 355 355 354 354 354 353 353 354 354 354 354 354 354 353 353 355 355 355 353 352 354 354 354 354 355 355 354 352 351 350 352 352 352 351 350 350 351 349 348 348 346 344 344 344
334 334 332 331 329 331 337 338 338 338 339 341 339 333 336 345 342 338 338 342 347 348 349 348 349 350 349 351 352 352 351 350 349 349 350 350 350 352 352 353 353 353 355 355 356 355 355 356 356 357 357 357 357 355 354 354 354 353 353 354 354 354 354 354 353 354 354 353 353 354 356 355 353 352 353 354 355 354 354 354 353 353 353 352 352 351 351 350 351 352 350 348 347 346 345 344 342
333 332 330 330 323 325 335 336 337 338 337 340 339 330 335 345 342 338 335 340 346 347 348 347 348 350 348 350 351 351 351 349 349 349 349 349 350 351 352 353 353 353 354 355 355 355 354 356 356 356 357 356 356 356 354 354 354 353 354 354 354 355 354 354 353 353 354 353 353 353 355 356 355 353 350 352 354 353 353 355 354 354 354 353 352 351 352 351 351 352 350 348 347 347 346 343 342
330 324 322 327 322 324 335 334 336 337 336 339 338 331 338 346 342 339 337 339 345 345 347 347 347 348 347 349 351 350 350 348 347 348 349 349 349 350 351 352 353 354 354 355 355 354 354 355 356 356 356 356 354 355 354 354 355 354 354 354 354 355 354 354 354 353 354 354 353 354 354 354 355 352 349 350 353 351 351 354 355 355 354 353 352 352 352 351 350 350 349 347 347 347 345 343 342
328 323 316 321 321 322 329 332 335 335 336 340 337 336 343 349 346 342 338 338 342 344 345 345 346 348 347 348 350 349 349 349 348 348 348 349 349 349 350 351 353 354 354 355 354 355 355 354 355 356 356 356 354 354 355 353 354 354 354 355 354 355 354 355 355 354 354 354 354 354 355 354 355 353 350 350 352 352 351 354 356 355 354 353 353 353 351 350 350 350 347 346 347 347 344 344 343
322 324 319 320 323 321 322 329 336 335 337 340 339 342 347 350 348 343 340 338 340 342 343 344 345 347 347 347 348 349 349 350 349 347 347 348 349 349 350 350 352 354 354 355 354 354 354 354 355 355 356 357 354 354 356 354 354 355 354 355 354 354 354 355 355 354 353 354 354 354 355 355 354 354 352 352 353 354 354 355 356 355 354 354 353 352 351 350 349 348 346 346 347 346 342 340 341
316 319 318 318 322 322 321 327 336 336 337 340 340 342 346 347 346 344 342 340 339 341 342 343 344 346 346 346 348 350 349 350 348 346 347 348 348 349 349 349 351 353 353 353 354 354 353 353 354 355 356 357 354 353 355 355 354 354 354 354 354 354 354 354 354 354 353 353 353 354 354 355 354 354 354 353 353 354 355 356 357 355 354 355 353 351 350 348 348 347 347 347 346 344 339 337 338
322 322 320 318 318 321 327 331 335 338 337 340 340 339 342 346 344 344 343 342 342 341 341 341 342 345 344 345 347 349 350 349 347 346 347 347 348 349 349 350 351 352 352 352 353 353 353 353 354 355 355 357 354 352 355 355 354 354 354 353 353 353 353 354 354 353 353 352 352 353 353 354 354 354 355 354 352 353 355 357 356 355 355 354 352 350 348 347 347 346 345 343 342 340 338 339 339
328 326 323 322 319 321 330 334 336 338 336 337 343 341 341 346 346 345 344 344 344 343 343 342 343 345 344 345 347 349 350 349 348 348 348 348 349 349 348 350 351 352 352 352 353 353 353 353 353 355 355 356 356 353 355 355 355 355 354 354 354 354 353 354 354 353 353 353 352 353 354 354 354 354 354 354 353 353 356 358 356 355 356 353 350 348 347 347 345 343 341 339 338 337 339 341 340
329 326 322 321 321 323 331 335 335 337 336 335 343 343 342 346 345 346 345 344 345 344 344 343 343 345 344 345 347 350 350 348 349 349 349 349 350 349 349 350 350 352 352 352 354 353 352 353 352 354 355 356 356 355 355 355 355 355 355 355 355 354 354 353 354 353 353 354 353 354 354 354 354 354 354 355 354 353 355 357 355 356 354 351 347 347 347 344 340 342 341 339 340 340 340 340 341
327 325 322 318 322 325 328 335 337 337 335 335 342 341 341 346 345 346 345 343 345 345 345 344 344 344 345 345 346 350 350 350 351 350 349 349 350 350 349 350 350 351 353 353 354 353 352 354 353 353 355 356 357 356 355 355 356 356 355 355 355 355 355 354 354 353 353 355 354 354 355 356 356 356 356 356 355 355 356 355 355 355 351 348 346 344 343 341 339 342 341 338 340 341 340 340 340
326 325 320 316 323 323 319 329 337 338 336 338 342 339 341 346 346 348 346 343 344 343 345 346 344 344 344 344 344 348 351 352 352 350 350 349 349 351 350 351 351 350 353 354 355 354 353 354 353 354 355 356 357 356 356 355 356 357 356 355 355 355 355 354 354 354 354 355 355 355 355 356 357 357 357 355 355 356 356 354 354 352 347 345 345 342 342 341 340 340 339 340 340 340 340 341 340
324 326 322 319 324 324 321 329 335 336 335 340 340 331 334 344 347 349 347 346 345 343 344 346 346 345 344 344 344 346 349 350 352 352 351 351 349 350 350 351 351 351 353 355 356 355 354 355 355 354 354 357 358 357 356 355 356 358 356 355 355 355 355 355 355 356 355 355 355 355 354 355 357 357 357 356 356 356 355 352 351 349 347 344 343 343 343 341 340 339 339 342 341 340 341 341 340
319 326 328 326 327 328 329 331 330 326 326 336 336 322 326 341 344 347 347 348 348 347 347 345 347 348 345 346 345 346 347 348 351 352 351 351 349 349 351 351 352 352 352 355 356 357 356 355 356 356 355 356 358 357 356 356 357 357 356 355 355 354 356 356 356 356 355 354 354 355 355 356 356 357 357 357 356 355 353 351 348 348 347 343 340 341 341 339 340 340 340 341 341 340 340 340 341
313 323 329 329 330 328 328 327 324 319 320 335 336 326 325 334 337 347 349 347 350 351 352 348 349 350 346 346 346 345 347 347 350 351 350 350 348 349 351 351 352 352 353 354 356 357 357 356 356 357 356 355 357 358 357 357 357 357 355 355 355 354 355 356 356 355 354 353 354 355 356 356 356 356 357 357 355 354 353 350 348 347 345 342 341 341 340 338 339 341 341 341 342 340 338 340 341
313 324 329 329 330 328 328 325 320 322 327 333 333 332 328 326 333 348 349 347 350 350 351 351 350 350 346 346 347 346 346 347 348 349 350 350 348 349 351 352 352 352 352 354 355 357 358 358 357 358 358 356 356 358 357 357 357 357 355 355 356 355 354 355 354 354 354 354 354 356 356 355 355 356 356 356 355 352 351 350 348 347 345 342 340 340 339 338 338 341 341 340 341 339 338 340 341
319 326 328 329 330 329 330 325 320 323 324 321 326 328 325 324 336 349 349 346 348 349 350 351 351 350 347 346 347 347 347 348 348 348 349 350 348 348 350 352 352 351 352 353 355 357 358 359 358 359 360 358 357 357 358 357 356 357 356 355 356 356 355 354 354 354 355 355 355 356 355 354 355 356 355 355 354 352 350 349 348 347 346 343 340 337 336 338 340 341 341 341 340 337 337 340 340
323 326 327 328 329 329 331 326 321 320 318 316 322 324 322 324 332 341 344 340 343 350 349 349 353 351 349 347 346 347 347 348 348 347 348 349 348 347 350 353 352 351 352 352 354 356 358 360 359 359 360 360 359 357 357 358 357 357 357 356 356 356 356 355 355 355 356 356 355 355 355 355 355 355 355 354 353 351 349 349 348 347 346 344 342 338 334 338 342 341 341 341 337 334 335 339 339
325 325 325 324 326 329 331 328 322 316 315 318 321 322 323 324 328 335 340 340 344 350 349 349 351 351 350 348 344 346 348 349 349 348 348 348 348 348 349 353 353 352 352 353 354 355 358 360 360 360 360 360 360 359 357 358 358 358 358 357 357 357 357 357 357 357 357 357 355 355 356 355 355 355 354 353 352 351 350 349 348 347 346 344 343 340 335 339 341 339 340 340 336 334 335 338 340
324 325 322 318 317 321 320 321 321 316 314 318 322 323 321 319 327 337 344 348 346 347 349 349 349 350 351 349 345 346 348 348 349 349 349 349 350 349 350 352 353 353 353 353 354 355 357 360 361 361 360 360 361 361 359 357 358 359 359 359 358 358 358 358 359 359 358 357 356 356 356 355 354 353 353 352 351 352 350 349 348 345 343 343 343 340 338 340 340 336 338 341 339 338 338 336 338
324 322 317 312 311 314 314 315 317 316 315 318 321 322 317 318 332 344 345 348 346 345 347 348 348 349 350 350 348 347 348 348 348 349 350 351 352 351 349 352 353 353 353 354 354 355 358 360 361 361 360 360 360 362 361 359 358 359 360 360 359 359 359 359 359 359 359 357 355 355 354 354 354 353 353 352 351 352 351 350 349 345 342 343 342 340 339 340 339 335 337 341 340 340 340 336 336
322 317 312 311 312 313 315 315 315 316 317 318 321 321 315 316 332 346 345 344 345 345 345 345 348 348 348 350 349 347 347 348 348 349 350 351 353 353 350 351 354 354 354 354 355 355 357 360 362 362 361 361 360 362 362 361 359 359 360 360 360 360 361 360 359 359 358 356 354 354 353 353 353 352 353 353 351 352 351 351 349 346 344 344 342 340 339 340 339 337 337 340 340 339 341 339 336
321 322 318 313 312 313 314 315 314 316 318 317 318 319 314 315 332 346 344 343 345 344 345 347 347 346 347 348 348 348 347 347 348 349 351 353 353 352 351 351 353 355 355 356 356 356 358 360 362 363 362 361 361 362 362 363 361 360 361 361 361 362 361 360 359 358 358 355 354 354 353 354 353 352 353 353 352 351 351 351 349 348 347 344 342 340 339 339 338 338 339 339 338 337 339 339 335
321 325 319 312 314 316 314 316 315 313 316 316 314 317 322 330 346 350 341 342 345 344 345 346 346 346 346 348 348 348 347 347 348 350 354 356 354 351 351 352 353 356 356 357 357 357 359 361 362 363 363 362 362 362 363 363 364 363 362 362 362 362 361 360 358 358 357 355 353 353 354 354 354 352 352 353 353 351 352 351 347 348 347 343 342 340 338 339 339 339 339 339 338 338 339 338 335
320 319 314 316 323 321 312 313 315 313 314 317 314 316 323 329 339 345 343 342 343 344 345 345 345 347 347 349 349 348 348 348 349 352 355 357 356 353 352 353 354 355 356 357 358 358 359 360 362 363 363 363 363 363 363 364 364 364 364 363 363 363 362 360 358 357 357 354 353 354 355 354 354 353 353 353 352 351 352 350 346 346 346 342 342 341 337 338 339 339 340 339 338 339 338 338 337
320 314 316 322 326 323 316 312 314 315 315 315 313 314 318 319 326 341 344 342 341 343 344 343 344 347 348 350 348 347 350 350 350 353 355 355 356 355 353 353 355 356 357 358 358 359 360 361 363 363 364 365 364 364 364 363 364 365 364 364 363 362 362 360 359 358 357 356 355 355 356 355 355 353 353 353 351 351 352 350 346 345 345 343 344 342 339 338 339 339 340 339 338 339 338 338 338
323 319 323 323 316 313 314 312 313 314 314 314 313 314 316 317 324 335 340 342 343 342 342 342 344 348 349 349 349 349 349 351 350 351 353 354 354 355 354 353 355 357 357 358 358 359 361 361 363 364 364 365 365 364 365 364 364 365 365 364 363 362 361 360 360 359 358 357 356 356 356 357 355 354 354 352 351 351 351 349 347 345 344 344 344 343 340 339 340 340 339 339 338 338 339 337 337
324 324 325 323 317 314 313 313 312 314 315 315 315 314 316 324 334 338 342 345 343 342 344 343 343 346 348 346 348 350 349 350 350 349 350 352 351 352 353 352 355 357 357 358 358 359 360 362 363 364 364 365 365 365 365 365 364 365 365 365 363 362 361 360 361 361 359 358 357 356 356 357 356 355 355 353 351 351 350 349 347 346 344 344 344 343 341 340 341 340 339 339 337 336 338 339 337
320 317 317 317 318 317 316 314 311 312 315 316 317 315 316 333 345 342 347 348 344 343 345 343 342 344 344 345 346 348 348 348 348 347 347 349 351 351 352 353 354 357 358 358 358 359 360 362 364 365 365 365 366 366 365 365 365 365 365 365 363 362 361 361 361 361 360 359 358 357 356 357 357 356 356 354 351 350 350 349 348 346 345 344 344 343 342 341 341 341 339 338 337 336 336 338 338
322 318 316 316 316 314 312 313 313 311 311 313 315 315 320 339 344 341 346 348 343 343 344 342 342 342 342 342 344 347 348 347 347 347 346 348 351 351 352 353 353 356 359 358 358 359 359 361 363 364 365 366 366 366 365 365 365 365 365 365 364 363 362 361 361 361 360 359 359 358 357 357 357 356 356 354 351 350 349 349 349 347 346 345 344 344 343 341 341 341 339 338 338 337 335 336 338
Wind_Speed
13 15 17 15 11 9 4 1 1 1 1 1 3 1 2 4 4 4 7 9 7 7 8 10 9 6 8 9 10 11 11 3 2 4 2 6 22 26 19 23 27 26 25 23 22 22 23 24 24 26 25 25 25 25 25 24 24 24 23 22 22 21 21 21 21 20 20 20 20 20 20 19 19 19 19 18 17 17 16 16 15 15 14 13 12 12 12 12 12 13 13 13 12 12 11 11 11
14 15 17 14 10 7 1 1 1 1 1 1 3 0 2 5 4 3 8 10 8 11 12 12 12 12 14 12 11 13 13 8 8 7 5 18 26 21 23 28 28 28 26 23 23 24 25 25 27 27 26 25 24 24 25 24 24 24 23 22 21 21 20 20 20 19 20 20 20 19 19 18 18 18 18 17 17 16 16 15 14 14 12 12 11 11 11 11 12 12 12 12 12 11 11 10 10
17 17 18 14 7 3 1 1 0 2 1 0 1 2 4 5 5 4 12 15 13 15 14 12 11 11 13 13 10 11 8 6 13 10 8 22 20 18 28 28 28 28 25 24 24 25 27 26 27 27 26 25 23 24 24 24 23 22 22 21 21 20 19 19 19 19 19 19 19 19 18 18 17 17 17 16 16 16 15 14 14 13 11 11 11 11 11 11 11 11 11 11 11 10 10 10 9
19 19 20 14 2 0 0 0 1 2 2 2 0 4 4 5 7 9 14 14 13 14 12 11 10 9 13 15 10 10 9 6 12 12 9 17 20 25 29 26 28 26 24 24 25 27 28 28 27 26 26 25 24 24 23 23 22 21 21 20 20 19 19 19 18 19 19 18 18 18 17 17 17 16 16 16 15 15 14 13 12 11 11 10 10 10 10 10 10 10 10 11 10 9 9 9 8
18 18 19 12 1 0 1 2 1 0 2 2 1 4 6 7 11 12 12 13 13 13 11 9 9 10 11 12 6 6 9 8 12 15 14 18 26 31 28 27 28 25 23 23 26 28 28 28 27 26 26 26 26 24 22 22 22 21 20 20 19 19 19 19 18 18 18 18 17 17 17 16 16 15 15 15 15 14 13 12 11 10 10 10 9 9 9 10 10 9 10 10 10 9 8 7 6
17 16 16 9 1 2 1 1 2 3 5 3 2 4 5 9 12 12 12 14 14 14 14 11 11 12 10 9 7 7 10 11 12 15 20 25 29 31 29 29 27 24 22 23 26 27 27 26 25 25 25 25 24 22 21 21 21 21 20 20 19 19 19 18 18 17 17 17 16 16 16 15 15 15 14 14 14 13 12 12 11 10 9 9 8 8 8 8 9 8 9 9 8 8 7 7 5
15 8 8 3 1 2 1 2 4 4 7 6 3 3 9 11 12 14 13 13 14 14 13 13 13 12 9 7 7 11 16 15 14 18 26 30 31 31 30 29 27 25 22 24 25 26 26 25 24 23 23 23 21 20 20 20 20 20 20 19 19 19 18 18 17 17 16 16 16 16 15 15 14 14 14 13 13 12 12 11 10 9 8 7 7 7 7 7 7 7 7 7 7 7 7 6 5
12 3 2 1 1 1 1 4 5 6 6 6 4 3 11 11 11 13 14 12 12 12 13 14 13 12 10 7 6 13 20 19 20 26 31 32 32 32 30 29 28 26 23 25 26 26 26 25 24 22 22 21 20 20 20 20 20 20 20 19 19 18 18 17 17 16 15 15 15 15 15 14 13 13 13 12 12 11 11 10 9 7 7 7 7 7 7 6 6 6 7 7 7 7 7 6 5
9 3 1 1 2 2 3 4 6 8 7 9 5 3 9 8 7 11 15 13 12 12 15 13 11 14 11 11 9 11 19 24 28 30 32 32 32 30 29 29 29 29 26 26 27 26 26 26 24 22 22 21 20 20 20 20 20 20 19 19 18 18 17 16 16 15 15 15 15 14 14 13 12 12 12 11 11 10 10 8 8 7 8 7 7 7 7 7 6 6 7 7 7 7 8 7 7
5 4 2 1 3 3 4 7 5 7 7 8 6 6 7 6 6 9 14 14 14 14 16 14 13 16 14 12 9 9 20 27 29 28 30 30 30 30 29 29 29 30 29 29 29 27 26 24 23 22 22 21 21 20 20 20 19 19 19 18 18 17 16 15 15 15 14 14 14 14 13 12 11 11 11 10 10 9 8 7 7 8 8 7 6 6 7 8 8 7 7 7 8 8 9 9 8
3 3 2 2 3 4 4 7 4 6 7 6 6 6 5 5 5 11 16 14 15 16 16 14 14 16 15 11 6 13 27 28 28 28 29 29 29 30 29 28 28 29 30 31 29 27 25 24 23 21 21 21 20 20 20 19 19 19 18 18 17 16 15 15 14 14 14 14 14 13 12 11 10 10 10 9 9 7 7 7 7 7 7 7 6 6 8 9 8 8 8 8 10 10 10 10 9
2 3 2 2 2 4 4 7 4 7 7 6 6 5 6 5 5 13 16 15 16 16 14 12 12 13 14 11 6 17 29 26 28 29 28 28 28 28 28 28 28 27 31 32 30 28 26 24 23 21 21 20 20 20 20 19 19 19 18 18 17 16 15 14 14 13 14 13 13 12 11 10 10 10 9 9 7 6 7 6 6 8 7 6 6 6 7 8 8 9 9 9 11 11 12 11 10
2 3 2 3 3 4 7 8 4 8 4 5 5 4 6 6 8 11 14 17 16 14 14 14 14 12 12 9 7 15 22 25 29 29 29 28 27 27 28 28 27 27 31 32 30 28 26 25 24 22 21 20 20 19 19 19 19 18 18 18 16 15 15 14 14 13 13 13 12 11 11 10 9 9 8 8 7 5 6 6 7 7 7 6 6 6 7 8 7 8 9 10 11 13 13 12 11
3 2 1 3 3 5 6 7 3 7 3 5 5 5 6 5 8 8 12 17 13 13 16 17 15 13 12 10 8 9 15 26 29 29 30 29 29 28 28 27 27 28 30 31 30 29 27 25 24 23 22 21 21 19 19 19 19 19 18 18 16 15 15 14 14 13 13 12 12 11 10 9 8 8 8 8 7 5 4 5 7 7 6 6 6 6 7 8 8 8 9 9 11 12 12 12 11
5 2 2 2 4 5 5 5 2 8 4 5 5 6 9 6 6 6 13 16 11 14 16 16 14 10 11 12 10 9 18 29 28 29 29 28 29 29 29 28 28 28 29 29 30 29 27 26 25 24 23 23 22 21 20 19 19 19 18 18 16 15 15 14 14 13 13 12 11 10 10 9 8 8 7 7 6 4 4 5 6 6 5 6 7 7 8 8 9 9 9 9 9 10 10 11 10
4 3 1 2 4 5 4 5 3 7 3 5 4 6 10 8 7 7 13 14 12 14 13 12 11 10 13 12 14 20 27 30 30 30 28 28 28 28 30 29 28 28 27 28 29 28 26 26 25 25 24 24 23 22 21 20 20 19 19 18 16 15 14 14 14 13 13 12 11 10 10 9 9 8 7 6 4 3 4 5 5 6 5 7 8 8 9 10 10 10 10 10 9 8 8 9 8
3 3 1 3 4 4 4 4 2 6 5 5 5 6 8 8 8 10 12 13 13 13 10 11 10 14 16 15 22 30 32 31 30 31 28 27 26 25 28 28 27 26 25 27 28 27 25 25 25 25 25 24 24 22 21 21 20 20 19 17 16 15 14 14 14 13 13 12 11 11 10 10 9 8 7 6 4 3 4 5 4 5 5 7 8 9 9 10 10 10 10 9 9 8 7 7 8
4 2 2 3 4 4 4 5 2 6 8 5 7 8 8 9 10 10 11 13 15 13 11 14 14 16 19 23 30 31 32 32 30 29 26 24 23 22 23 24 25 25 26 26 26 26 25 26 25 25 26 25 24 22 22 21 21 20 19 18 16 15 15 15 14 14 13 12 12 11 11 10 9 8 6 5 4 2 2 4 3 4 6 7 7 7 8 8 8 8 8 7 8 8 7 6 7
5 3 3 4 4 5 5 8 7 3 6 7 9 9 9 10 9 7 9 13 14 12 13 16 17 18 21 26 29 29 31 30 29 29 25 22 22 21 21 22 23 25 26 26 26 27 27 26 26 26 26 25 24 23 22 22 21 21 20 18 17 16 16 15 14 14 13 12 11 11 11 9 8 7 5 6 5 4 1 2 3 4 5 6 6 5 5 7 7 7 7 7 8 8 7 6 6
6 4 4 5 7 8 8 11 9 0 5 7 9 9 9 9 7 6 10 13 12 12 14 15 17 19 20 22 25 28 28 28 29 28 26 24 23 22 22 23 23 25 26 27 28 27 27 27 27 27 26 26 24 23 22 22 22 21 20 19 18 17 16 15 14 13 13 12 11 11 10 9 7 7 6 6 7 5 2 2 3 4 5 5 4 4 4 6 7 7 7 7 9 9 7 6 5
6 6 6 8 9 8 7 9 9 2 5 4 5 9 11 9 6 8 12 11 9 11 16 18 19 21 21 20 22 25 24 24 25 25 25 25 24 23 23 24 24 26 27 27 27 28 27 27 28 28 27 27 24 23 23 22 22 21 20 19 18 17 16 16 14 14 13 11 11 10 10 8 7 8 7 7 9 7 4 3 3 3 4 3 3 2 3 4 6 7 6 6 8 7 6 6 5
6 9 11 12 9 3 4 7 10 4 6 4 3 5 8 9 6 10 14 10 8 13 19 21 21 21 22 21 21 22 21 20 22 22 22 24 25 24 24 24 25 26 27 26 28 28 28 28 28 28 29 28 25 24 23 22 23 21 20 20 18 18 17 16 15 14 13 12 11 10 10 9 9 9 8 9 9 8 6 4 3 3 2 2 1 2 2 3 5 5 5 5 5 4 4 5 4
6 8 13 14 7 5 4 7 9 5 6 6 4 3 6 8 5 9 14 11 12 19 23 24 21 21 23 22 20 20 20 19 20 22 23 24 24 25 26 26 25 26 27 26 28 28 28 29 29 29 29 28 25 24 22 22 23 21 19 19 18 18 17 16 16 15 13 13 12 11 11 10 11 11 10 9 8 8 9 7 6 5 3 3 2 4 3 2 2 2 2 3 4 2 3 3 3
9 7 11 13 9 9 7 8 9 7 8 7 6 4 6 7 4 5 8 8 16 23 23 23 21 21 22 20 19 19 19 20 21 24 26 25 25 27 28 27 27 27 26 27 28 28 28 29 29 30 30 28 25 24 23 21 22 21 19 19 18 17 17 16 16 14 13 12 12 12 12 11 10 11 12 10 8 9 10 8 8 6 4 4 4 3 2 2 2 1 1 2 3 3 3 2 3
11 11 11 10 10 11 10 8 10 7 7 7 8 6 6 6 4 2 7 16 22 23 21 22 21 20 19 18 19 18 17 19 21 24 24 24 26 27 27 27 28 27 26 28 28 28 29 29 29 30 30 28 26 25 24 22 21 22 20 20 19 17 16 16 15 15 14 13 12 12 13 12 11 10 12 11 10 11 10 8 7 6 5 4 3 3 1 1 1 1 1 1 2 2 2 2 2
9 14 14 11 11 12 12 10 11 6 5 8 10 8 5 5 5 3 11 22 23 23 21 20 20 20 18 17 17 16 17 18 19 23 24 24 26 26 26 27 29 28 28 29 28 28 29 29 29 30 29 28 26 25 25 23 22 22 22 21 20 18 17 16 16 16 16 15 14 13 13 13 11 10 12 11 11 12 10 8 7 6 5 3 3 2 2 1 1 0 2 2 3 2 1 2 2
10 12 15 14 12 11 13 12 11 7 7 11 10 9 8 7 5 3 11 21 22 24 21 19 18 18 18 16 15 15 16 18 21 23 23 24 25 26 26 27 28 28 29 29 28 29 29 29 29 29 28 27 26 25 24 23 23 22 21 21 20 19 18 16 17 16 16 17 16 15 15 15 11 8 11 11 10 11 9 7 7 6 4 4 4 3 2 1 1 1 3 4 4 2 1 1 4
14 12 10 9 7 7 12 12 11 7 8 13 11 9 11 9 5 4 13 21 22 24 21 19 17 14 16 16 14 12 13 19 24 22 20 21 23 26 27 27 29 28 30 31 29 30 29 30 29 29 29 27 26 25 24 23 23 22 20 20 19 18 17 17 18 17 17 17 17 16 15 16 14 9 10 12 11 9 7 6 6 6 5 5 5 4 2 1 2 3 3 3 2 1 3 1 3
13 12 8 9 11 8 13 13 11 9 9 15 12 8 10 10 7 8 16 19 20 23 20 19 17 14 14 14 12 11 12 17 21 20 21 24 24 27 27 29 30 28 31 31 30 31 29 30 29 29 30 28 27 25 24 23 22 21 20 20 19 17 17 17 17 17 17 17 16 17 16 15 15 12 11 11 11 8 6 6 5 6 6 6 7 5 4 3 2 2 2 1 1 2 2 1 2
11 10 5 6 10 7 12 13 13 12 11 17 13 5 7 10 9 11 15 16 20 20 18 17 15 14 13 12 11 11 12 14 17 19 23 25 25 27 28 29 31 29 30 31 32 32 29 30 29 29 30 29 28 24 24 23 21 21 20 19 19 17 17 17 16 15 16 17 16 16 16 15 15 15 13 12 12 10 7 6 6 7 7 7 7 5 5 4 3 2 1 1 1 2 1 3 2
8 8 5 5 4 4 7 10 12 12 11 17 14 4 6 10 11 13 13 14 20 18 16 16 14 14 12 11 12 12 11 12 17 22 24 27 26 26 28 30 32 31 30 30 32 33 30 30 29 29 30 30 28 25 24 23 21 22 20 19 19 17 18 17 17 15 14 16 16 14 15 14 14 15 14 13 12 12 9 7 7 7 7 7 7 6 6 5 4 3 1 3 3 2 1 1 2
5 6 5 3 3 6 8 8 10 9 9 17 13 3 6 9 9 14 14 13 20 18 16 17 15 15 14 11 13 13 10 11 19 23 24 29 29 26 28 30 32 32 32 31 31 33 30 30 30 29 30 30 29 26 24 23 21 21 20 19 19 18 18 17 17 16 13 13 14 13 14 14 13 13 13 12 11 11 9 7 7 6 7 7 7 6 6 5 4 3 2 4 3 2 0 2 2
5 5 5 4 5 6 8 8 11 10 8 14 11 4 5 7 6 11 15 15 17 17 16 17 15 16 14 11 12 12 10 10 14 19 24 29 29 28 29 30 32 33 33 32 32 33 31 31 31 30 30 31 30 27 24 24 23 21 20 20 20 19 19 17 16 16 15 15 15 14 14 14 13 12 12 12 11 10 8 7 6 7 7 7 7 6 5 5 4 4 5 5 3 0 1 2 2
5 5 5 7 9 7 7 7 10 12 9 11 10 6 5 7 6 8 15 16 14 15 16 18 15 15 13 11 12 12 11 11 11 16 23 28 29 29 30 30 31 34 34 33 32 33 32 32 33 32 31 31 31 28 24 25 24 22 21 21 21 19 19 18 16 16 16 16 16 16 16 15 13 12 11 11 11 10 8 6 7 8 7 7 7 6 4 3 3 4 6 5 3 1 1 1 3
7 7 5 7 10 9 8 5 7 9 10 12 10 8 7 10 10 9 15 16 13 13 15 16 15 15 14 12 13 12 12 12 12 17 24 28 29 30 31 30 31 34 35 34 32 33 31 31 33 33 33 31 31 29 24 24 24 23 21 19 21 19 18 19 17 17 16 15 16 17 17 16 15 13 12 11 11 10 8 7 9 8 8 7 6 5 4 6 6 6 5 4 3 1 2 2 2
12 11 8 8 8 7 10 8 9 9 8 10 11 9 8 11 11 10 15 16 12 12 13 13 13 14 15 13 13 13 14 13 14 20 24 26 29 30 30 29 30 32 35 35 33 34 31 30 32 32 35 32 31 31 26 24 24 24 22 19 20 20 18 19 18 17 16 15 15 16 18 17 15 14 13 12 11 10 9 8 10 10 8 7 6 6 8 8 7 6 4 4 4 4 4 4 3
14 13 11 10 7 7 12 11 12 12 7 8 10 10 10 10 10 10 15 16 13 13 14 13 13 14 14 14 14 15 15 13 16 21 23 24 28 31 29 28 29 30 34 36 34 35 33 31 32 32 34 34 33 33 30 27 26 25 24 22 21 21 20 20 19 18 16 16 17 15 16 15 15 14 14 13 11 11 11 9 11 10 9 7 7 8 9 8 7 6 5 5 5 4 3 3 4
14 12 10 10 8 7 12 9 14 15 8 8 11 11 9 10 9 8 13 16 13 14 15 14 14 15 14 14 15 16 13 12 15 17 20 23 26 29 30 29 30 29 32 36 35 37 34 31 33 31 33 35 34 35 33 29 28 27 27 26 23 22 22 21 21 20 15 15 17 16 14 14 14 15 14 13 12 13 13 12 12 11 10 9 9 10 10 8 8 7 5 5 5 4 2 2 4
11 10 9 9 8 7 11 9 12 15 7 7 12 11 7 10 11 8 11 14 12 14 16 15 15 15 15 15 15 15 14 13 14 16 17 21 25 29 30 29 32 31 31 35 35 36 36 32 33 32 32 35 35 35 34 31 30 29 28 26 25 22 22 22 20 19 16 15 17 17 15 14 14 14 14 14 14 14 14 13 12 11 11 12 12 11 10 8 7 7 6 4 4 3 1 1 3
10 9 8 8 9 8 8 7 6 11 9 8 12 9 6 8 9 7 9 12 11 14 17 16 16 16 16 17 15 15 16 15 15 17 17 19 23 27 28 29 32 31 30 33 35 37 37 35 34 33 32 33 34 35 34 32 30 28 26 25 24 22 20 20 19 19 18 16 16 17 15 14 13 14 15 15 14 14 13 12 13 14 14 13 11 10 9 8 8 8 7 5 4 3 1 2 4
12 13 11 9 10 12 10 9 7 7 9 10 11 7 4 7 10 8 8 9 9 13 16 15 15 16 16 17 16 16 17 16 16 18 18 17 19 24 29 30 32 32 31 33 36 37 38 37 36 35 34 31 33 35 33 32 30 26 25 24 22 21 19 21 22 21 21 18 17 17 16 14 13 13 15 15 14 14 13 13 15 16 16 13 11 10 10 10 8 7 8 6 5 3 1 3 6
10 15 17 14 12 13 12 13 9 3 5 5 8 4 4 6 11 10 9 9 8 8 12 14 14 15 15 15 16 16 17 17 17 18 18 17 18 23 28 31 32 32 33 35 37 37 37 38 37 36 37 33 31 35 34 32 31 28 27 26 25 23 21 23 26 24 23 21 19 17 16 15 13 13 14 15 15 15 15 15 16 17 16 13 12 11 10 10 8 7 7 7 5 4 3 4 6
8 11 16 18 18 16 14 15 10 3 5 7 8 5 3 5 9 10 10 12 12 9 8 10 11 13 14 14 15 16 15 15 16 17 18 18 19 20 24 30 33 32 33 35 35 36 36 38 38 36 38 36 32 33 35 33 32 31 30 28 28 27 24 24 28 26 23 22 20 18 17 16 14 14 16 16 16 17 18 17 17 18 15 13 12 11 11 10 8 8 8 8 7 6 5 5 7
8 9 13 17 19 20 18 15 10 4 5 10 14 9 4 4 7 9 12 14 14 12 11 10 10 13 15 14 15 16 16 15 15 16 17 18 19 20 23 29 34 34 34 35 35 36 36 38 39 37 36 38 35 33 35 36 34 33 32 29 28 29 27 25 25 25 23 22 21 19 18 17 16 17 17 18 18 19 20 19 19 18 15 13 12 11 12 10 9 10 11 10 8 6 6 6 7
9 10 12 14 17 19 17 13 9 6 4 6 11 10 5 4 6 8 11 13 13 14 14 13 11 12 15 15 15 16 17 16 16 16 17 18 20 23 27 30 33 34 35 35 36 37 38 38 39 37 35 37 37 35 35 36 36 34 33 31 28 27 27 24 23 23 21 22 21 20 20 20 19 19 19 20 21 19 20 21 20 19 16 13 12 11 12 10 11 14 13 11 10 8 7 6 7
9 12 13 11 12 14 14 11 8 7 6 6 9 11 6 3 5 7 8 9 12 13 14 14 11 11 13 14 15 15 15 15 16 17 17 18 23 28 30 31 33 34 35 36 36 36 37 37 38 38 36 36 37 38 36 36 36 35 33 32 30 28 26 24 23 23 22 21 21 21 23 24 23 22 22 22 22 20 21 22 21 19 17 15 14 11 11 13 15 15 13 11 10 10 9 7 6
9 11 12 11 10 9 8 8 6 6 6 6 9 14 10 5 5 8 8 9 11 11 12 13 13 12 13 13 14 14 14 13 14 16 16 18 25 30 30 31 33 34 35 35 35 35 37 37 38 39 38 36 36 38 38 37 36 35 34 34 32 30 27 25 24 25 24 23 22 22 25 28 26 25 24 24 23 21 22 23 22 20 18 17 17 13 12 16 17 14 12 11 10 10 9 8 7
10 8 7 7 7 6 6 5 5 7 7 6 8 11 12 7 6 8 10 11 13 12 12 16 18 17 14 13 14 14 13 13 14 15 16 16 19 24 27 29 33 34 34 35 35 36 36 37 38 39 38 38 36 37 38 38 37 35 35 35 33 32 30 28 27 28 28 26 24 25 29 30 28 26 26 25 24 23 23 23 22 21 19 18 18 15 14 17 17 13 12 12 11 11 10 10 10
10 7 5 6 6 5 6 5 4 6 7 7 7 9 9 6 6 12 14 13 15 14 13 16 20 20 17 14 14 13 12 13 14 14 15 15 14 17 21 25 30 33 34 35 36 36 36 37 39 39 39 39 37 37 38 39 39 37 36 35 34 33 31 30 30 30 31 29 27 29 32 32 29 27 27 27 27 25 24 25 23 21 20 19 19 17 15 16 15 14 15 15 14 13 12 11 12
9 8 6 6 6 6 7 5 5 5 5 7 11 10 7 6 6 13 17 16 16 16 14 15 18 20 19 16 14 14 14 14 13 13 14 15 15 16 19 24 29 32 35 36 36 37 36 36 38 39 39 40 39 38 38 38 39 38 37 36 35 34 32 32 31 31 32 32 30 31 32 32 30 29 29 29 28 27 26 25 23 21 20 20 21 19 16 16 14 15 18 18 16 15 13 12 13
9 9 7 6 6 6 6 5 4 4 4 7 13 10 5 5 7 13 17 17 17 16 15 14 15 18 18 17 17 17 16 14 13 13 14 15 17 17 20 26 29 32 36 37 36 37 37 36 39 40 39 40 40 38 38 38 38 38 37 36 35 34 33 33 33 32 33 34 34 32 32 31 30 29 30 30 29 28 28 26 24 23 22 22 21 19 18 17 14 16 20 19 17 16 15 14 14
6 6 7 9 8 5 4 4 4 4 4 5 7 6 4 4 7 11 15 16 17 15 15 16 14 15 17 18 19 17 15 14 13 13 13 15 17 17 20 26 29 32 35 36 36 37 38 37 39 41 40 40 40 39 39 38 38 38 38 37 36 35 34 34 34 32 33 36 36 34 34 32 31 30 30 31 30 29 29 27 25 24 23 24 22 19 20 19 15 17 20 19 17 17 16 15 15
4 6 10 8 7 6 4 4 4 4 6 5 4 4 3 4 4 5 10 15 16 15 15 17 16 15 16 16 16 15 14 14 14 13 13 14 16 17 21 26 28 30 34 36 38 38 39 39 39 40 40 40 40 40 39 38 37 37 37 38 37 36 35 35 35 34 34 35 35 34 34 33 32 32 31 31 30 30 30 28 27 26 24 25 23 20 22 22 19 19 20 20 19 18 18 18 17
4 6 7 2 1 4 3 3 4 4 6 4 4 7 6 5 5 4 9 14 16 15 14 15 15 14 15 15 16 16 15 15 15 15 14 14 15 16 20 25 29 33 36 37 38 38 39 39 40 40 40 40 41 40 39 38 37 37 38 39 38 37 37 36 36 37 35 35 35 34 34 33 33 33 32 31 29 30 32 30 28 28 26 25 24 22 23 24 23 22 21 21 21 19 19 20 20
9 5 3 3 4 6 4 4 4 5 7 4 5 8 7 6 5 6 11 14 16 16 15 14 13 13 14 15 17 18 16 14 15 15 14 13 15 16 20 25 30 33 36 37 37 37 37 37 39 41 41 41 41 40 39 38 38 37 37 39 39 38 38 37 37 37 36 35 36 35 34 34 34 33 33 33 31 31 33 32 31 31 29 27 26 25 25 26 25 24 24 24 23 21 20 21 22
10 8 5 5 5 5 6 5 3 4 5 4 6 8 6 6 6 7 10 13 16 16 15 14 13 14 14 14 15 16 16 14 14 15 14 15 16 18 22 28 30 32 34 35 36 36 36 36 37 38 39 39 39 39 38 38 38 37 36 38 39 38 38 38 38 38 37 36 37 37 36 35 34 34 34 34 33 33 34 34 33 32 32 29 27 26 27 28 26 25 26 26 26 25 23 23 23
10 9 9 8 4 3 6 6 6 5 4 3 5 6 5 5 5 8 9 10 13 15 15 16 15 16 17 16 16 16 16 15 15 15 15 16 16 17 23 28 30 31 33 34 36 37 37 37 37 37 38 38 39 39 39 38 38 37 37 37 39 38 38 38 39 38 37 36 36 38 37 36 35 36 35 35 35 35 35 35 35 34 33 31 30 29 29 29 28 27 27 27 27 28 27 25 23
11 9 10 11 6 4 5 6 7 8 6 5 5 4 6 6 5 8 9 9 12 14 15 15 15 16 17 17 18 19 18 17 18 18 17 16 16 16 21 26 28 29 31 35 37 37 37 37 37 38 38 38 39 39 39 38 37 37 38 38 39 38 38 39 39 38 38 37 37 37 38 37 36 36 36 36 36 36 35 35 36 36 35 34 32 31 30 31 31 29 29 29 28 29 30 28 25
Wind_Direction
159 156 149 144 157 155 135 199 269 204 201 287 257 345 147 155 107 125 140 144 139 126 122 129 144 122 112 111 101 68 37 48 115 125 132 137 149 150 152 154 150 146 144 141 142 145 145 143 141 141 138 134 132 132 134 135 135 135 134 131 128 123 120 118 116 117 117 116 115 114 113 113 112 111 111 109 109 107 104 101 98 94 92 92 90 88 85 84 82 81 78 73 72 70 69 70 70
166 154 150 152 161 161 130 209 269 274 181 248 256 6 101 96 95 213 133 111 98 100 98 104 114 102 101 101 93 72 45 28 81 94 87 131 143 148 156 156 148 145 144 142 144 146 146 143 143 142 140 138 134 135 137 136 138 139 138 135 132 127 123 120 120 121 119 117 116 115 115 114 113 112 111 111 110 107 104 101 97 93 92 92 90 88 85 83 81 82 78 73 71 71 72 72 72
165 156 159 161 155 179 247 181 259 333 359 202 250 119 105 116 180 190 102 99 96 97 96 100 102 100 96 83 70 80 80 46 87 91 103 135 142 150 156 154 148 146 144 143 143 146 146 143 144 144 144 142 136 136 137 136 138 138 139 137 134 130 126 124 124 123 120 118 117 117 116 115 113 113 112 112 111 108 105 101 97 93 91 90 88 87 84 82 78 77 74 73 72 72 74 73 75
164 163 165 165 144 247 263 35 339 351 323 291 131 145 166 170 146 104 97 104 99 97 100 104 98 96 90 91 91 89 103 89 98 105 122 145 148 150 152 149 149 146 143 145 143 145 147 147 148 146 145 144 139 138 138 137 137 137 137 136 135 132 129 127 126 124 120 120 119 119 117 116 114 114 113 113 112 108 106 101 97 93 89 86 85 85 81 78 75 73 70 70 69 70 75 75 77
168 174 173 167 131 301 22 345 308 286 267 265 170 188 188 147 112 106 115 111 107 109 106 104 99 99 84 91 108 96 115 116 111 117 126 144 147 147 148 148 148 144 143 146 145 145 147 148 148 147 145 145 142 139 140 138 137 136 136 135 134 133 132 129 127 124 121 121 121 121 119 117 115 115 115 115 113 109 106 101 98 92 85 82 82 83 78 75 72 69 66 65 64 65 71 77 79
178 190 186 179 121 173 143 311 275 254 255 239 215 239 156 120 117 121 120 114 113 111 106 99 97 97 78 79 92 100 124 123 119 125 130 142 147 145 146 146 145 143 144 147 146 144 146 147 147 145 144 145 142 140 142 141 138 137 136 136 136 134 132 130 128 125 124 124 123 123 121 120 118 117 118 116 113 110 106 102 97 90 84 82 80 77 73 72 69 68 65 65 63 62 68 76 76
192 202 188 202 352 168 147 219 246 261 248 228 232 199 130 122 136 131 123 121 109 106 109 106 106 100 86 94 96 101 113 120 127 132 136 143 146 145 145 145 144 142 145 149 147 144 144 144 144 144 142 143 142 144 147 144 140 139 138 137 136 136 133 131 130 128 128 127 127 126 123 122 121 120 119 116 114 111 106 102 97 90 86 82 77 71 65 66 69 70 69 71 71 69 73 77 74
205 223 143 203 308 193 205 223 233 247 220 200 250 156 129 134 146 135 132 123 108 114 112 112 112 96 90 97 97 110 112 117 128 133 137 142 145 145 146 146 145 144 148 153 150 145 143 143 144 144 143 144 145 148 148 145 143 141 140 139 138 137 134 133 132 132 132 131 130 128 126 123 122 122 120 118 116 112 108 104 97 88 81 74 69 63 58 63 69 71 72 75 80 80 82 84 82
213 213 160 194 248 264 251 253 241 239 200 172 211 160 126 129 136 129 127 117 114 118 109 115 108 95 103 100 96 108 109 119 128 132 138 142 145 146 148 148 146 146 151 155 152 148 146 145 146 147 147 148 149 149 148 147 146 144 143 142 142 140 138 137 136 137 136 135 134 131 128 124 124 123 122 120 118 116 111 104 95 82 71 64 60 56 52 59 64 70 75 77 87 88 83 82 80
199 185 195 225 243 288 279 280 247 206 185 163 157 140 123 125 148 126 115 113 116 111 106 106 98 105 115 107 102 110 117 128 132 134 140 143 146 146 149 150 146 145 152 155 153 151 149 149 148 150 151 150 150 150 150 149 148 148 147 146 145 144 144 142 141 141 140 139 136 134 131 127 127 126 125 123 122 121 113 105 94 77 67 61 56 54 55 58 60 72 82 84 90 87 77 75 74
185 187 209 233 231 270 265 282 264 143 144 128 110 131 123 127 143 112 106 108 107 107 112 104 100 113 114 108 105 123 129 135 136 139 144 145 146 147 147 147 145 147 155 156 153 153 152 153 153 153 153 151 152 151 152 152 152 152 151 151 149 149 149 147 146 146 145 143 141 138 136 133 131 128 127 128 128 125 115 108 88 67 61 60 56 59 65 62 62 77 86 86 87 83 75 75 78
196 219 194 232 232 252 257 278 254 125 123 123 126 141 120 139 127 113 117 116 115 121 125 116 119 121 112 113 119 136 139 141 141 142 144 145 146 147 145 145 146 150 156 155 153 154 155 157 157 157 156 154 153 153 155 154 155 156 156 156 153 152 151 151 150 150 150 149 147 145 142 139 135 132 132 134 135 129 116 106 78 62 58 59 61 64 71 68 70 81 84 84 83 82 78 78 83
218 238 185 246 248 256 271 275 210 125 120 113 117 126 120 147 131 126 130 126 133 133 124 121 129 124 112 119 134 144 143 143 144 144 145 145 145 145 145 145 146 148 153 155 154 156 157 159 159 159 159 158 157 157 158 157 158 159 159 160 158 155 154 154 154 154 154 153 154 151 148 145 140 138 141 142 141 134 114 97 74 62 59 62 69 70 74 75 76 82 84 84 84 86 82 80 84
212 242 210 249 262 267 275 273 172 112 102 106 133 163 131 128 125 133 128 122 130 132 129 131 131 114 116 133 137 147 144 145 147 145 146 145 145 146 146 146 145 147 152 156 157 157 159 161 160 160 163 162 160 160 160 159 159 160 161 162 161 160 158 157 157 157 157 158 158 155 152 150 147 148 151 150 150 143 111 91 74 64 64 69 77 77 77 78 77 81 85 87 91 91 83 80 84
204 227 231 269 288 288 303 294 120 105 122 141 165 156 121 115 127 121 116 118 123 132 134 136 134 118 141 154 143 153 148 147 147 143 143 143 145 147 147 146 146 150 153 156 158 159 161 163 163 162 165 165 164 164 163 161 161 161 162 163 164 163 162 161 161 161 162 162 161 159 157 154 154 156 159 158 155 145 112 91 70 64 70 78 83 79 80 82 81 82 83 87 93 93 82 77 81
209 244 273 301 293 306 315 310 77 107 141 144 134 123 126 138 135 106 111 121 127 136 137 145 150 134 151 155 142 149 147 146 146 142 139 140 144 143 143 145 147 151 154 158 159 160 162 164 166 165 166 168 167 167 165 163 163 163 164 165 167 166 166 165 164 164 164 164 162 161 160 159 161 161 165 162 148 134 109 84 66 70 80 87 87 84 86 86 85 86 82 82 85 86 81 75 75
213 237 287 282 288 313 293 306 49 113 111 125 133 122 120 118 110 102 116 125 129 141 144 148 146 132 142 145 142 146 144 146 145 140 138 139 142 138 139 145 149 152 156 161 160 160 163 167 169 168 168 169 169 168 168 167 166 167 168 168 169 170 169 167 165 165 165 165 165 165 165 166 166 163 166 165 147 130 102 79 65 72 90 96 94 91 90 85 83 86 84 82 80 75 71 75 80
218 197 220 264 277 284 266 289 300 125 126 155 149 127 115 110 114 120 132 134 138 148 141 134 132 129 134 137 141 143 143 144 140 137 139 140 141 139 143 150 152 153 158 163 164 163 167 171 171 169 169 170 170 170 170 170 171 171 171 171 174 174 171 170 168 168 168 169 170 170 171 171 167 162 163 173 175 169 105 76 62 78 101 105 103 97 89 83 78 80 82 78 73 66 57 66 73
214 185 199 244 251 255 261 279 295 96 138 156 139 136 134 135 143 150 146 140 146 146 128 126 126 126 131 136 142 144 144 144 142 141 143 144 146 147 149 153 154 155 160 164 166 168 172 173 171 170 169 169 172 173 173 174 175 175 175 176 177 175 173 173 171 170 173 174 175 173 173 172 169 171 178 185 194 202 170 79 70 88 104 99 100 101 90 75 72 79 74 64 59 55 48 46 44
200 192 210 238 241 244 243 255 270 183 143 142 143 148 133 144 164 158 145 142 150 139 124 128 129 133 138 141 144 147 148 147 147 148 148 149 151 152 154 157 159 159 163 165 165 169 173 172 170 171 168 168 174 176 177 178 177 178 178 178 178 176 176 176 175 175 178 179 180 177 173 173 172 184 191 184 197 214 215 141 108 95 94 82 73 82 91 70 71 78 64 56 49 42 41 36 24
197 192 206 237 242 246 242 253 270 207 143 137 144 137 131 152 168 150 148 150 154 137 134 140 140 143 144 145 149 150 150 148 152 154 152 153 154 156 159 161 161 162 163 164 165 169 172 171 170 172 169 170 176 178 179 180 179 180 180 181 180 179 179 179 179 180 184 185 185 181 175 177 183 192 193 184 203 224 224 182 147 99 80 72 41 63 97 62 63 68 57 52 41 35 32 26 20
207 194 198 230 235 236 264 268 277 254 135 127 115 126 138 148 166 159 156 165 164 143 142 143 146 148 149 151 152 152 152 152 157 160 157 157 157 158 159 160 160 161 164 165 166 168 171 171 171 173 171 172 177 179 181 181 180 182 182 183 183 183 183 182 183 186 189 190 191 190 183 193 203 201 200 194 205 221 225 213 173 135 109 108 54 97 99 54 58 63 63 56 48 42 28 26 15
218 203 196 221 200 142 241 256 257 231 144 150 150 151 144 143 180 171 168 185 158 142 143 144 147 149 150 153 154 157 156 158 164 163 162 162 160 158 159 161 162 162 165 168 168 168 172 173 174 175 174 174 178 181 183 183 182 183 183 185 186 187 188 187 189 191 192 194 197 198 193 202 210 210 214 207 199 204 215 219 188 171 173 181 157 116 110 105 99 74 68 67 66 58 45 39 345
225 231 202 204 173 158 207 245 245 198 155 159 150 148 168 167 182 174 173 164 132 133 140 142 145 148 152 155 158 161 157 162 167 163 164 165 162 160 160 163 164 165 165 168 169 170 173 176 178 178 177 176 178 181 183 185 182 182 186 186 188 190 190 192 192 192 195 199 200 198 197 206 210 210 216 209 195 195 203 208 193 186 186 186 181 154 138 143 156 159 122 81 69 62 83 24 323
223 235 223 193 176 178 182 231 247 202 159 153 144 155 195 176 152 176 124 116 124 131 136 141 145 149 154 160 161 161 160 165 166 162 166 166 163 162 162 162 163 165 166 167 170 171 174 178 180 179 179 177 179 182 181 185 183 182 188 188 191 194 194 194 192 195 200 205 202 195 196 206 210 206 208 202 197 201 202 203 193 190 194 182 183 179 163 163 192 184 107 58 48 57 96 348 336
227 223 225 206 192 189 171 211 234 203 175 157 149 160 182 141 134 190 123 119 127 131 136 143 147 152 157 165 165 162 162 167 168 165 168 168 165 163 163 163 163 166 167 168 171 172 174 179 181 181 181 179 179 182 179 184 186 186 189 189 190 194 199 198 195 199 203 207 204 194 195 206 212 207 208 202 197 200 199 202 198 199 203 175 169 171 163 188 221 249 4 355 5 11 312 348 54
265 238 225 215 200 185 172 202 217 193 180 161 157 163 159 142 157 211 129 126 128 130 139 145 149 155 160 167 167 164 166 171 173 167 167 170 168 166 167 165 166 169 168 168 172 174 174 177 180 180 182 180 178 180 181 184 188 190 189 189 191 194 200 199 198 204 205 207 205 197 197 201 203 196 198 194 187 192 193 205 210 210 207 182 183 179 155 181 238 305 356 351 359 27 110 60 42
282 279 260 239 226 189 174 195 207 193 177 162 162 162 151 149 187 192 132 131 132 135 144 148 153 157 160 169 167 166 174 173 173 170 169 172 171 168 169 167 168 170 168 170 172 174 176 177 178 180 182 181 179 182 185 185 187 191 190 189 193 193 195 197 199 207 208 206 205 203 201 199 197 183 183 183 179 191 197 207 211 205 204 197 204 212 208 215 240 296 346 356 4 88 141 132 9
285 292 307 302 292 249 191 192 198 193 178 163 158 161 153 154 191 166 133 137 138 139 146 151 156 157 162 170 165 168 178 175 173 173 172 173 174 171 169 169 170 170 169 172 173 174 177 177 178 182 182 181 181 183 185 186 186 191 192 189 193 190 189 198 201 205 207 205 206 206 205 203 199 194 197 192 185 196 205 208 212 207 208 203 211 225 221 218 231 276 316 340 345 170 164 348 345
284 286 298 288 293 263 197 192 197 197 182 161 153 170 164 162 186 157 138 144 141 141 150 153 156 158 165 168 163 173 181 180 174 174 174 174 176 173 169 170 172 171 169 171 174 176 178 178 179 182 183 183 183 184 185 188 187 189 190 186 190 192 191 198 199 204 208 203 203 205 205 207 203 202 208 203 192 196 205 221 225 213 211 209 218 224 210 220 224 224 245 198 181 157 46 6 45
281 284 286 251 277 282 219 203 196 195 180 157 148 163 168 170 180 154 147 150 142 147 153 154 159 158 166 166 162 176 186 185 176 175 175 175 180 176 171 172 172 173 170 171 175 178 179 178 180 181 184 185 183 185 185 188 188 186 189 186 190 194 193 198 198 202 207 200 201 204 205 209 208 207 210 208 202 199 201 218 227 221 219 219 226 222 211 223 221 219 219 173 156 77 27 70 113
285 274 278 249 240 272 266 238 199 189 167 149 143 153 165 174 179 153 155 154 144 153 156 156 163 160 166 166 163 176 186 184 177 178 177 176 181 180 174 173 172 173 173 174 176 178 180 180 180 180 184 186 184 186 187 187 188 186 189 188 193 196 193 197 200 201 204 201 203 205 206 211 214 213 212 210 208 205 200 206 225 227 221 225 231 225 218 225 219 219 200 161 137 41 257 156 127
275 255 254 250 231 235 262 248 194 182 162 145 142 148 160 171 189 159 159 158 150 155 156 160 163 161 166 164 164 175 181 184 180 182 179 174 180 182 179 176 174 174 175 177 178 179 182 181 181 181 184 186 185 185 186 187 187 187 191 190 195 199 195 197 200 202 206 206 207 209 212 214 218 219 214 210 211 211 200 201 225 223 214 224 228 224 226 231 224 193 165 150 137 48 212 165 10
261 253 247 253 245 227 241 234 181 177 165 150 146 141 152 162 186 177 161 162 161 158 158 163 163 163 167 165 168 174 178 188 185 186 184 177 179 181 181 181 177 175 176 179 181 182 183 182 181 182 184 188 188 185 185 187 187 187 191 193 195 197 197 198 201 204 208 209 208 211 215 215 217 221 218 213 213 214 203 203 223 218 212 219 218 219 222 208 186 158 147 145 159 201 200 195 330
238 242 239 242 248 249 250 229 175 179 158 152 155 151 162 162 180 194 168 165 169 164 161 164 165 164 168 169 170 174 180 189 189 190 187 180 179 179 181 184 178 176 178 180 183 183 183 182 180 182 184 188 190 187 185 186 185 187 190 192 194 195 197 199 203 207 207 210 209 211 214 214 217 221 222 218 218 221 210 206 218 213 210 215 210 202 178 156 145 135 136 154 170 168 181 210 288
233 241 240 232 236 245 253 237 180 177 158 156 160 161 176 171 181 188 165 166 172 167 162 164 167 165 169 172 170 174 180 188 190 190 188 180 177 178 180 182 177 176 179 182 183 183 185 184 180 180 183 187 188 186 186 184 182 187 190 190 192 196 199 200 205 208 207 209 213 214 211 211 216 220 224 224 225 226 213 212 215 209 212 215 199 176 156 142 140 142 157 177 182 181 205 225 223
236 246 249 245 240 227 243 237 177 168 169 169 162 165 185 177 175 176 162 167 173 168 167 167 167 166 171 175 171 175 181 185 186 188 190 181 176 177 180 182 178 175 178 181 183 183 187 187 182 181 183 185 186 186 187 186 183 186 190 193 194 197 200 201 205 208 208 208 210 212 208 210 217 220 225 224 223 218 209 212 209 206 219 213 182 161 148 141 149 158 156 159 168 178 199 214 195
234 246 256 258 257 245 252 237 167 165 176 176 166 166 186 176 166 172 164 168 175 171 171 173 170 167 172 175 173 176 180 179 179 185 190 184 177 178 181 183 182 178 178 180 182 182 185 187 185 183 183 184 186 186 186 188 189 190 191 194 196 199 202 204 206 206 209 209 207 209 212 216 220 221 223 220 217 211 207 208 207 214 218 190 159 148 149 152 156 158 156 158 168 178 179 157 182
233 242 254 260 266 272 275 258 172 168 173 169 170 169 182 173 168 178 172 172 179 175 174 175 173 168 171 176 175 174 176 177 177 182 189 187 181 180 181 183 184 184 181 180 181 182 183 186 187 185 184 185 185 186 187 188 192 195 196 196 198 201 205 207 208 204 207 213 208 209 215 218 218 219 218 217 214 210 210 212 210 210 194 170 159 157 159 163 161 163 169 174 171 171 194 168 192
233 238 244 250 258 267 274 272 196 178 171 157 166 174 180 171 168 182 182 178 179 177 176 176 175 173 173 177 177 172 174 179 179 180 186 189 185 181 181 182 183 184 181 180 181 182 185 187 189 188 186 186 186 186 188 190 192 197 199 199 198 202 207 209 209 205 207 212 204 202 211 214 214 214 213 214 211 206 209 206 196 189 176 166 168 170 169 170 170 171 171 169 163 135 4 197 172
225 231 240 243 245 251 256 272 267 196 172 157 153 168 197 176 171 180 183 183 184 180 178 179 179 177 174 176 177 174 174 178 180 181 184 188 187 183 181 181 182 183 182 182 183 184 186 188 190 192 190 189 188 187 189 190 191 193 196 197 196 201 206 204 205 204 203 204 200 200 208 212 212 212 210 209 203 193 192 188 181 178 174 172 176 175 175 176 174 170 166 166 169 151 94 163 156
226 223 232 243 249 252 254 264 269 177 165 171 142 159 243 195 174 179 181 185 193 184 179 183 181 177 176 175 178 178 177 179 180 181 183 186 189 185 182 181 182 184 185 185 185 186 187 187 189 192 193 193 191 189 189 190 190 191 191 190 192 199 201 195 197 200 197 199 202 201 203 207 209 207 202 201 193 181 182 183 177 176 178 181 181 177 175 179 184 185 176 167 162 171 158 124 141
238 219 220 235 250 258 259 261 262 169 168 194 171 169 240 209 185 180 177 185 195 193 190 190 179 176 179 176 179 182 179 179 180 182 183 185 189 186 182 182 183 185 187 186 186 186 186 187 189 191 194 195 193 190 190 190 190 192 192 191 192 198 199 193 196 201 199 199 202 201 199 200 200 196 189 187 186 180 183 186 180 179 183 181 179 182 178 178 186 187 180 172 162 169 158 110 123
236 227 217 221 234 249 257 262 264 235 177 191 190 177 158 203 209 187 174 182 192 194 198 202 184 177 181 178 178 182 182 180 179 182 183 185 189 188 184 184 185 186 186 185 184 185 186 188 189 192 194 195 194 192 191 192 192 192 194 195 196 199 200 196 195 200 202 198 198 198 198 197 193 189 183 179 183 185 186 188 184 184 185 178 177 183 180 182 190 178 171 177 177 173 162 127 122
228 233 234 222 221 234 247 257 263 252 228 207 197 178 159 214 220 193 176 177 189 195 197 200 192 182 182 180 177 179 183 182 179 182 184 185 189 189 186 184 185 186 185 185 185 186 187 188 190 192 194 195 196 194 192 193 194 194 194 196 198 200 200 197 192 192 194 192 194 197 198 195 188 186 185 181 187 191 188 187 187 188 188 181 174 171 174 184 187 176 171 182 189 187 177 149 138
222 230 243 244 231 228 232 239 253 253 247 236 200 178 175 230 208 187 183 182 188 193 195 196 192 187 185 184 180 178 181 183 183 184 182 183 188 189 186 183 184 186 186 188 187 186 187 187 189 192 195 196 196 196 194 193 194 194 194 195 198 199 197 196 193 192 193 192 196 200 199 193 184 185 188 186 191 194 190 188 188 189 191 188 181 171 174 181 182 182 186 192 192 188 183 162 151
219 223 238 254 252 243 236 227 227 245 248 230 200 186 183 214 211 184 184 191 186 182 190 194 193 193 190 188 186 181 179 180 183 186 186 184 185 186 183 181 184 185 186 187 187 187 187 187 189 192 195 197 196 197 196 195 194 194 194 195 197 197 195 193 192 194 196 196 200 201 195 188 183 186 188 186 191 194 191 190 190 190 192 192 187 183 186 187 188 193 190 185 180 173 172 160 153
219 215 216 239 256 260 259 244 211 227 239 221 212 207 198 209 218 192 184 184 182 181 185 189 192 195 193 189 188 185 181 179 179 183 188 185 181 181 180 181 183 184 184 185 187 187 187 188 189 191 194 196 196 197 197 196 195 195 196 196 196 197 195 192 193 195 195 196 195 188 183 183 183 185 186 186 189 192 191 191 192 193 192 191 190 193 199 195 195 197 185 177 173 166 170 168 161
216 216 199 208 232 240 240 246 220 224 238 213 218 236 224 219 204 188 185 180 181 187 186 186 188 190 190 188 188 186 181 181 181 181 185 186 180 178 181 181 181 183 184 185 186 187 188 189 189 190 193 195 196 196 196 197 197 196 197 197 198 197 195 193 194 194 194 195 188 178 177 180 182 183 186 186 189 191 191 192 193 193 193 193 193 194 193 190 195 198 188 181 180 175 176 179 173
205 211 201 193 204 217 224 239 232 233 247 218 223 240 233 238 216 183 184 184 184 187 187 186 187 189 190 189 187 186 183 184 185 183 184 184 182 181 182 181 181 184 186 185 186 187 187 188 189 191 193 194 195 196 197 197 197 197 197 198 198 197 195 194 195 195 194 193 188 180 180 183 183 184 187 189 190 191 192 193 193 193 194 196 196 196 192 191 200 200 190 188 189 186 184 187 184
207 205 205 208 202 205 210 212 219 233 249 221 223 227 201 212 215 184 184 189 187 189 189 186 188 189 189 189 189 189 188 186 187 187 184 183 184 183 182 182 182 185 186 185 186 186 186 187 189 191 192 193 195 196 197 197 198 198 198 198 198 197 195 195 196 198 196 193 190 187 186 187 188 189 189 191 192 192 193 194 194 196 199 197 197 199 196 195 202 198 193 194 195 191 190 196 192
209 192 208 221 208 202 215 210 216 232 249 232 221 222 186 195 205 182 183 187 185 189 190 189 195 190 185 188 190 190 189 187 186 185 181 182 185 183 181 184 185 185 185 186 186 185 186 187 189 191 192 193 194 196 197 198 198 197 197 198 198 197 196 195 197 199 197 193 191 192 192 193 195 194 192 194 193 193 194 194 193 197 199 195 195 198 194 193 195 191 191 193 193 191 193 197 196
181 198 221 224 198 201 232 241 245 242 243 236 217 243 242 231 243 202 184 183 182 186 187 191 199 192 183 185 187 185 185 184 182 180 177 177 183 184 182 183 184 184 185 187 187 186 186 187 188 190 191 192 194 196 197 198 197 197 197 198 198 197 196 195 196 198 197 194 193 194 196 197 198 195 194 194 193 194 196 193 191 194 195 194 197 200 196 196 196 191 189 191 193 195 197 199 200
184 204 217 225 241 227 219 227 236 233 240 230 212 239 234 214 247 233 194 185 184 189 188 190 195 186 178 179 181 182 180 178 179 181 182 179 180 184 184 183 183 185 187 188 187 186 187 188 188 188 189 191 194 196 197 198 198 197 197 198 198 197 196 196 197 199 198 195 194 195 196 198 197 195 195 194 193 196 197 193 191 194 197 200 202 203 200 199 202 199 195 193 194 198 203 204 205
215 230 193 164 224 229 210 215 208 211 236 243 234 243 227 200 211 209 197 186 182 191 194 194 191 176 170 172 175 178 178 178 181 182 186 185 184 184 184 185 185 186 187 187 186 186 187 188 189 189 191 192 194 195 197 198 198 198 198 198 198 197 196 196 197 198 198 197 196 196 196 197 196 196 197 196 196 198 196 194 195 198 200 203 205 205 202 200 204 205 201 199 198 199 203 207 207
216 244 237 208 211 202 200 220 217 201 218 224 235 244 236 217 208 202 198 183 179 187 190 194 189 169 167 170 172 179 181 182 185 185 187 189 190 190 186 185 185 185 185 184 184 185 186 188 189 190 191 192 193 195 196 197 198 198 199 199 198 197 196 197 198 198 198 198 198 198 197 197 196 197 198 198 198 198 196 196 198 198 200 204 205 205 204 202 204 206 205 205 204 202 205 208 208
199 219 228 229 230 193 192 209 216 207 196 196 220 237 245 239 211 210 214 193 186 188 181 187 187 171 170 172 173 183 188 187 188 188 189 190 191 191 188 186 185 182 181 181 183 186 186 187 189 189 190 191 192 195 196 197 198 198 199 199 199 198 196 197 199 199 198 198 199 199 198 197 196 197 198 198 198 198 198 199 199 199 200 203 205 205 205 204 205 206 207 208 207 207 209 211 211
191 201 218 225 224 208 207 216 216 212 207 205 216 243 255 249 221 216 223 207 199 196 184 183 184 175 177 180 179 182 186 189 190 190 190 189 189 188 185 184 183 179 179 182 184 185 186 187 188 189 190 191 193 194 196 197 198 198 199 200 199 198 197 198 200 200 200 200 200 200 199 198 197 197 198 199 199 198 200 200 200 200 201 202 205 206 205 204 205 206 206 207 208 209 211 213 214